NOAA 16 DEB

Satellite information

Favourite Embed

Satellite Type and Status

DEBRISIN ORBIT

Key statistics

Satellite NOAA 16 DEB at a glance.

Uptime

9155

Days in orbit

Revolutions

≈ 14.3

Per day

Orbit

SSO

Sun Synchronous Orbit

Inclination

98.9

Latest

Satellite identification and parameters

Extended collection of information and parameters for NOAA 16 DEB.

Object identification

Identified? True

Debris? True

Object name: NOAA 16 DEB

International designator: 2000-055TY

Object number (NORAD): 42428

Object ID (CCSDS): 42428

Country: UNITED STATES OF AMERICA (US)

Current information (Y/N): Y

RCS size: SMALL

Orbital parameters

Period: 100.898 minutes

Inclination: 98.9435 deg

SMA: 7179.31 km

Apoapsis: 818.551 km

Periapsis: 783.8 km

RAAN: 47.2778 deg

Eccentricy: 0.00242021

Argument of periapsis: 255.7958 deg

Mean anomaly: 104.0533 deg

Mean motion: 14.27179807 rev/day

Mean motion (dot): 0.00005763 rev/day2

B* drag term: 0.0023705577 1/REarth

Two-line elements (TLE)

Creation date: Oct. 2, 2025, 8:40 p.m.

Reference frame: TEME

Reference center: EARTH

Epoch: Oct. 2, 2025, 3:55 a.m. UTC

TLE line 0: 0 NOAA 16 DEB

TLE line 1: 1 42428U 00055TY 25275.16323037 .00005763 00000-0 23706-2 0 9997

TLE line 2: 2 42428 98.9435 47.2778 0024202 255.7958 104.0533 14.27179807453965

Live tracking on map

Real-time ground track for satellite NOAA 16 DEB.

In-orbit conjunctions

A list of the most updated potential collisions computed for object NOAA 16 DEB.

Target Orbit TCA Probability of collision Miss distance Type
FENGYUN 1C SSO 2025-08-08 16:00:04 0.0001182457 848.0 (m) PAYLOAD
COSMOS 2251 DEB LEO 2025-08-04 23:50:28 0.0002709269 147.0 (m) DEBRIS
PSLV R/B SSO 2025-04-01 16:00:54 0.0001719534 252.0 (m) ROCKET BODY
BPA 1/SL-24 R/B SSO 2024-11-17 01:58:51 0.0001164422 332.0 (m) ROCKET BODY
CZ-4 DEB SSO 2024-09-26 03:37:54 0.0006005627 765.0 (m) DEBRIS

Associated space launch

The NOAA K, L and M POES satellites begin the fifth generation of improved environmental monitoring in support of NOAA missions. The instrument payload has significant improvements and additions/deletions. The instrument changes have effected the spacecraft subsystems and data formats.

NOAA 16 DEB was lifted into orbit during the mission ‘Titan II SLV | NOAA 16’, on board a Titan II SLV space rocket.

The launch took place on Sept. 21, 2000, 10:22 a.m. from Space Launch Complex 4W.

For more information about the launch, click the button.

Launch to space Titan II SLV | NOAA 16
Titan II SLV | NOAA 16

Agency: N/A

Status: Launch Successful

Launch date: Sept. 21, 2000, 10:22 a.m. UTC

Rocket: Titan II SLV

Launch pad: Space Launch Complex 4W

Location: Vandenberg SFB, CA, USA

...

Latest news about this satellite

There are no fresh news available about this satellite. Check back as we update our databases every day.


Newsletter sign-up

Weekly statistics, charts and insights to help you stay on top of the space industry.